Starlink 32430

operational
NORAD ID: 62207 Int'l Des: 2024-229 Owner: SPXS Country: US Constellation: starlink
LEOCIRCULAR

关于 Starlink 32430

正在加载描述...

实时位置

正在加载3D地球...

即将过境

高度历史

Altitude vs Time

uPlot chart will show altitude changes over time

两行轨道根数

1 62207U 24229R 25303.00989195 .00020973 00000-0 76907-3 0 9993
2 62207 43.0056 285.4486 0001592 186.8457 173.2373 15.27598145 50615
Epoch: Oct 30, 2025 • Age: 23 hours

当前状态

高度 481.7 km
速度 7.63 km/s
星下点 -0.95°S, 76.65°E
发射日期 Dec 4, 2024
运行时间 0.9 years
类型 internet

技术详情

分类 Payload
质量 730.00 kg
干质量 700.00 kg
总质量 730.00 kg
长度 0.30 m
直径 4.10 m
跨度 29.00 m
形状 Box + pan
制造商 SPXS
平台类型 Starlink V2M
阶段状态 In Orbit
所有者/国家 SPXS/US

大型星座

Loading constellations...